This is the latest recevied weather packets stored in our database for station/object DM2KB-13. If no packets are shown the sender has not sent any weather packets the latest 1 day(s).
| Time | Temp. | Humidity | Pressure | Rain* | Wind** | Luminosity | Snow |
|---|---|---|---|---|---|---|---|
| 1778079094 | 9.44° C | 99% | 1007.4 hPa | 0 mm | - | 72 W/m² | - |
| 1778078794 | 9.44° C | 99% | 1007.4 hPa | 0.25 mm | - | 60 W/m² | - |
| 1778077893 | 9.44° C | 99% | 1007.4 hPa | 0.25 mm | - | 84 W/m² | - |
| 1778076992 | 8.89° C | 99% | 1007.4 hPa | 0.25 mm | - | 95 W/m² | - |
| 1778076692 | 8.89° C | 99% | 1007.4 hPa | 0.25 mm | - | 163 W/m² | - |
| 1778075791 | 8.89° C | 99% | 1007.4 hPa | 0.25 mm | - | 121 W/m² | - |
| 1778074890 | 8.89° C | 99% | 1007.4 hPa | 0.25 mm | - | 128 W/m² | - |
| 1778074590 | 8.89° C | 99% | 1007.4 hPa | 0.25 mm | - | 83 W/m² | - |
| 1778072488 | 8.89° C | 99% | 1007.3 hPa | 0.76 mm | - | 88 W/m² | - |
| 1778071587 | 8.89° C | 99% | 1007.3 hPa | 1.02 mm | - | 90 W/m² | - |
| 1778070386 | 8.33° C | 99% | 1007.1 hPa | 1.02 mm | - | 100 W/m² | - |
| 1778069485 | 8.33° C | 98% | 1007 hPa | 1.78 mm | - | 111 W/m² | - |
| 1778068284 | 8.33° C | 99% | 1006.8 hPa | 2.29 mm | - | 120 W/m² | - |
| 1778067383 | 8.33° C | 99% | 1006.7 hPa | 2.03 mm | - | 102 W/m² | - |
| 1778067083 | 8.89° C | 99% | 1006.7 hPa | 2.29 mm | - | 109 W/m² | - |
| 1778066482 | 8.89° C | 99% | 1006.7 hPa | 2.03 mm | - | 100 W/m² | - |
| 1778066182 | 8.89° C | 99% | 1006.7 hPa | 1.78 mm | - | 77 W/m² | - |
| 1778065281 | 8.89° C | 99% | 1006.6 hPa | 1.27 mm | - | 153 W/m² | - |
| 1778064981 | 8.89° C | 99% | 1006.6 hPa | 1.27 mm | - | 142 W/m² | - |
| 1778064080 | 8.89° C | 99% | 1006.5 hPa | 1.27 mm | - | 123 W/m² | - |
| 1778063179 | 8.89° C | 99% | 1006.4 hPa | 1.27 mm | - | 105 W/m² | - |
| 1778062879 | 8.89° C | 99% | 1006.3 hPa | 1.27 mm | - | 102 W/m² | - |
| 1778062578 | 8.89° C | 99% | 1006.3 hPa | 1.52 mm | - | 79 W/m² | - |
| 1778062278 | 8.89° C | 99% | 1006.2 hPa | 1.52 mm | - | 72 W/m² | - |
| 1778061978 | 8.33° C | 99% | 1006.2 hPa | 1.52 mm | - | 76 W/m² | - |
* Rain latest hour (hover to see other rain measurements)
** Current wind speed in m/s (hover to see current wind gust speed)